EN

Hourly Weather Acajutiba

Today, 4 December, Friday

Time Temperature Precipitation Wind Pressure Humidity
00:00 +24°C° 0 mm 2 mps 744 mmHg 96%
01:00 +24°C° 0 mm 2 mps 744 mmHg 96%
02:00 +24°C° 0 mm 2 mps 744 mmHg 97%
03:00 +24°C° 0 mm 1 mps 744 mmHg 97%
04:00 +24°C° 0 mm 1 mps 744 mmHg 95%
05:00 +24°C° 0 mm 2 mps 745 mmHg 93%
06:00 +25°C° 0 mm 2 mps 745 mmHg 91%
07:00 +27°C° 0.1 mm 2 mps 745 mmHg 81%
08:00 +29°C° 0.1 mm 3 mps 746 mmHg 72%
09:00 +31°C° 0 mm 3 mps 746 mmHg 61%
10:00 +31°C° 0.5 mm 3 mps 746 mmHg 62%
11:00 +31°C° 0.5 mm 3 mps 745 mmHg 62%
12:00 +31°C° 0.5 mm 3 mps 745 mmHg 62%
13:00 +31°C° 0.6 mm 3 mps 744 mmHg 61%
14:00 +33°C° 0.6 mm 4 mps 744 mmHg 60%
15:00 +33°C° 0.6 mm 4 mps 743 mmHg 59%
16:00 +30°C° 0 mm 4 mps 743 mmHg 65%
17:00 +29°C° 0 mm 4 mps 743 mmHg 71%
18:00 +27°C° 0 mm 4 mps 743 mmHg 77%
19:00 +26°C° 0 mm 4 mps 744 mmHg 82%
20:00 +26°C° 0 mm 3 mps 744 mmHg 86%
21:00 +25°C° 0 mm 3 mps 744 mmHg 91%
22:00 +25°C° 0 mm 3 mps 744 mmHg 92%
23:00 +24°C° 0 mm 2 mps 744 mmHg 93%

Tomorrow, 5 December, Saturday

Time Temperature Precipitation Wind Pressure Humidity
00:00 +24°C° 0 mm 2 mps 744 mmHg 94%
01:00 +24°C° 0.1 mm 2 mps 744 mmHg 93%
02:00 +25°C° 0.1 mm 2 mps 744 mmHg 91%
03:00 +25°C° 0.1 mm 2 mps 743 mmHg 89%
04:00 +25°C° 0.1 mm 2 mps 744 mmHg 88%
05:00 +25°C° 0.1 mm 2 mps 744 mmHg 87%
06:00 +25°C° 0.1 mm 3 mps 744 mmHg 86%
07:00 +27°C° 0 mm 3 mps 745 mmHg 77%
08:00 +29°C° 0 mm 3 mps 745 mmHg 68%
09:00 +30°C° 0 mm 4 mps 746 mmHg 60%
10:00 +32°C° 0 mm 4 mps 745 mmHg 58%
11:00 +32°C° 0 mm 4 mps 745 mmHg 55%
12:00 +33°C° 0 mm 4 mps 745 mmHg 53%
13:00 +33°C° 0 mm 4 mps 744 mmHg 54%
14:00 +33°C° 0 mm 5 mps 744 mmHg 54%
15:00 +33°C° 0 mm 5 mps 743 mmHg 54%
16:00 +30°C° 0 mm 5 mps 743 mmHg 62%
17:00 +28°C° 0 mm 4 mps 743 mmHg 69%
18:00 +26°C° 0 mm 4 mps 743 mmHg 77%
19:00 +25°C° 0 mm 3 mps 743 mmHg 82%
20:00 +24°C° 0 mm 3 mps 744 mmHg 87%
21:00 +24°C° 0 mm 3 mps 745 mmHg 92%
22:00 +22°C° 0 mm 3 mps 744 mmHg 93%
23:00 +23°C° 0 mm 2 mps 744 mmHg 94%

Day after tomorrow, 6 December, Sunday

Time Temperature Precipitation Wind Pressure Humidity
00:00 +23°C° 0 mm 2 mps 744 mmHg 96%
01:00 +23°C° 0 mm 2 mps 744 mmHg 96%
02:00 +23°C° 0 mm 2 mps 743 mmHg 96%
03:00 +22°C° 0 mm 1 mps 743 mmHg 96%
04:00 +23°C° 0.1 mm 2 mps 744 mmHg 93%
05:00 +24°C° 0.1 mm 2 mps 744 mmHg 89%
06:00 +24°C° 0.1 mm 2 mps 744 mmHg 86%
07:00 +26°C° 0 mm 3 mps 745 mmHg 75%
08:00 +28°C° 0 mm 3 mps 745 mmHg 64%
09:00 +30°C° 0 mm 4 mps 746 mmHg 53%
10:00 +32°C° 0 mm 4 mps 745 mmHg 50%
11:00 +33°C° 0 mm 4 mps 745 mmHg 48%
12:00 +34°C° 0 mm 4 mps 745 mmHg 45%
13:00 +34°C° 0 mm 4 mps 744 mmHg 45%
14:00 +33°C° 0 mm 4 mps 743 mmHg 46%
15:00 +33°C° 0 mm 5 mps 743 mmHg 46%
16:00 +30°C° 0 mm 4 mps 743 mmHg 55%
17:00 +28°C° 0 mm 4 mps 743 mmHg 63%
18:00 +26°C° 0 mm 4 mps 743 mmHg 72%
19:00 +25°C° 0 mm 3 mps 743 mmHg 78%
20:00 +24°C° 0 mm 3 mps 744 mmHg 84%
21:00 +23°C° 0 mm 2 mps 744 mmHg 90%
22:00 +23°C° 0 mm 2 mps 744 mmHg 92%
23:00 +23°C° 0 mm 2 mps 744 mmHg 94%

7 December, Monday

Time Temperature Precipitation Wind Pressure Humidity
00:00 +21°C° 0 mm 2 mps 744 mmHg 95%
01:00 +22°C° 0 mm 1 mps 744 mmHg 95%
02:00 +23°C° 0 mm 1 mps 743 mmHg 95%
03:00 +23°C° 0 mm 1 mps 743 mmHg 94%
04:00 +23°C° 0 mm 2 mps 744 mmHg 91%
05:00 +24°C° 0 mm 2 mps 744 mmHg 88%
06:00 +25°C° 0 mm 2 mps 745 mmHg 85%
07:00 +26°C° 0 mm 2 mps 745 mmHg 76%
08:00 +28°C° 0 mm 3 mps 745 mmHg 67%
09:00 +30°C° 0 mm 3 mps 746 mmHg 58%
10:00 +30°C° 0 mm 3 mps 745 mmHg 56%
11:00 +30°C° 0 mm 4 mps 745 mmHg 55%
12:00 +32°C° 0 mm 4 mps 744 mmHg 53%
13:00 +32°C° 0 mm 4 mps 744 mmHg 51%
14:00 +33°C° 0 mm 4 mps 743 mmHg 49%
15:00 +33°C° 0 mm 4 mps 743 mmHg 47%
16:00 +30°C° 0 mm 4 mps 743 mmHg 56%
17:00 +28°C° 0 mm 4 mps 743 mmHg 64%
18:00 +26°C° 0 mm 4 mps 743 mmHg 73%
19:00 +25°C° 0 mm 3 mps 744 mmHg 79%
20:00 +24°C° 0 mm 3 mps 744 mmHg 86%
21:00 +23°C° 0 mm 2 mps 744 mmHg 92%
22:00 +23°C° 0 mm 2 mps 744 mmHg 93%
23:00 +23°C° 0 mm 2 mps 744 mmHg 95%

8 December, Tuesday

Time Temperature Precipitation Wind Pressure Humidity
00:00 +23°C° 0 mm 2 mps 744 mmHg 96%
01:00 +23°C° 0 mm 2 mps 744 mmHg 96%
02:00 +23°C° 0 mm 2 mps 743 mmHg 97%
03:00 +23°C° 0 mm 1 mps 743 mmHg 97%
04:00 +23°C° 0.1 mm 2 mps 744 mmHg 94%
05:00 +24°C° 0.1 mm 2 mps 744 mmHg 90%
06:00 +25°C° 0.1 mm 2 mps 744 mmHg 86%
07:00 +26°C° 0 mm 2 mps 745 mmHg 77%
08:00 +28°C° 0 mm 3 mps 745 mmHg 68%
09:00 +29°C° 0 mm 3 mps 746 mmHg 59%
10:00 +30°C° 0 mm 3 mps 745 mmHg 56%
11:00 +31°C° 0 mm 3 mps 745 mmHg 53%
12:00 +33°C° 0 mm 3 mps 745 mmHg 50%
13:00 +33°C° 0 mm 4 mps 744 mmHg 49%
14:00 +33°C° 0 mm 4 mps 743 mmHg 49%
15:00 +34°C° 0 mm 4 mps 743 mmHg 48%
16:00 +32°C° 0 mm 4 mps 743 mmHg 55%
17:00 +29°C° 0 mm 4 mps 743 mmHg 63%
18:00 +26°C° 0 mm 4 mps 743 mmHg 71%
19:00 +26°C° 0 mm 4 mps 744 mmHg 77%
20:00 +25°C° 0 mm 3 mps 744 mmHg 83%
21:00 +24°C° 0 mm 3 mps 744 mmHg 89%
22:00 +22°C° 0 mm 3 mps 744 mmHg 91%
23:00 +23°C° 0 mm 2 mps 744 mmHg 93%

9 December, Wednesday

Time Temperature Precipitation Wind Pressure Humidity
00:00 +23°C° 0 mm 2 mps 744 mmHg 95%
01:00 +23°C° 0 mm 2 mps 743 mmHg 95%
02:00 +23°C° 0 mm 1 mps 743 mmHg 95%
03:00 +21°C° 0 mm 0 mps 743 mmHg 95%
04:00 +24°C° 0 mm 1 mps 743 mmHg 93%
05:00 +24°C° 0 mm 2 mps 744 mmHg 91%
06:00 +25°C° 0 mm 2 mps 744 mmHg 88%
07:00 +26°C° 0 mm 3 mps 745 mmHg 79%
08:00 +28°C° 0 mm 3 mps 745 mmHg 69%
09:00 +30°C° 0 mm 3 mps 746 mmHg 59%
10:00 +32°C° 0 mm 4 mps 745 mmHg 52%
11:00 +34°C° 0 mm 4 mps 745 mmHg 46%
12:00 +36°C° 0 mm 4 mps 745 mmHg 39%
13:00 +35°C° 0 mm 5 mps 744 mmHg 40%
14:00 +35°C° 0 mm 5 mps 743 mmHg 42%
15:00 +35°C° 0 mm 6 mps 743 mmHg 43%
16:00 +32°C° 0 mm 5 mps 743 mmHg 53%
17:00 +29°C° 0 mm 5 mps 743 mmHg 64%
18:00 +27°C° 0 mm 5 mps 743 mmHg 74%
19:00 +26°C° 0 mm 5 mps 744 mmHg 79%
20:00 +25°C° 0 mm 4 mps 744 mmHg 84%
21:00 +23°C° 0 mm 4 mps 744 mmHg 89%
22:00 +24°C° 0 mm 3 mps 744 mmHg 91%
23:00 +24°C° 0 mm 3 mps 744 mmHg 93%
Show more